Home   Weather   Yuma   Past weeks
Flag for USA

Past Weather in Yuma, Arizona, USA — Yesterday and Last 2 Weeks

Now
62 °F

Clear.


Feels Like: 62 °F
Forecast: 69 / 49 °F
Wind: 9 mph from North

Location: Yuma Marine Corps Air Station

Current Time: Dec 11, 2019 at 8:10:38 pm

Latest Report: Dec 11, 2019 at 6:57 pm


Visibility: 10 mi

Pressure: 30.13 "Hg

Humidity: 43%

Dew Point: 39 °F

Location of YumaLocation

Past Weather in Yuma — Graph

°F

Yuma Temperature Yesterday

Maximum temperature yesterday: 70 °F (at 1:57 pm)
Minimum temperature yesterday: 50 °F (at 6:57 am)
Average temperature yesterday: 60 °F

High & Low Weather Summary for the Past Weeks

 TemperatureHumidityPressure
High71 °F (Dec 11, 1:57 pm)97% (Dec 8, 4:57 am)30.24 "Hg (Dec 8, 4:57 am)
Low44 °F (Nov 30, 6:57 am)25% (Nov 27, 10:57 am)29.54 "Hg (Nov 28, 5:57 pm)
Average58 °F62%30.00 "Hg
* Reported Nov 26 6:57 pm — Dec 11 6:57 pm, Yuma. Weather by CustomWeather, © 2019

Note: Actual official high and low records may vary slightly from our data, if they occured in-between our weather recording intervals... More about our weather records

Yuma Weather History for the Previous 24 Hours

Scroll right to see more
 ConditionsComfort  
Time TempWeatherWind HumidityBarometerVisibility
6:57 pm
Wed, Dec 11
62 °FClear.9 mph43%30.13 "Hg10 mi
5:57 pm65 °FClear.6 mph36%30.11 "Hg10 mi
4:57 pm69 °FSunny.6 mph31%30.10 "Hg10 mi
3:57 pm71 °FPassing clouds.6 mph28%30.09 "Hg7 mi
2:57 pm71 °FPassing clouds.5 mph31%30.10 "Hg7 mi
1:57 pm71 °FScattered clouds.No wind34%30.11 "Hg7 mi
12:57 pm69 °FPassing clouds.3 mph33%30.13 "Hg7 mi
11:57 am67 °FPassing clouds.6 mph39%30.17 "Hg7 mi
10:57 am62 °FPassing clouds.7 mph48%30.18 "Hg7 mi
9:57 am60 °FPassing clouds.8 mph49%30.19 "Hg7 mi
8:57 am56 °FPassing clouds.6 mph55%30.17 "Hg7 mi
7:57 am51 °FScattered clouds.6 mph69%30.17 "Hg7 mi
6:57 am53 °FPartly cloudy.5 mph61%30.16 "Hg7 mi
5:57 am54 °FClear.6 mph59%30.14 "Hg10 mi
4:57 am54 °FClear.6 mph62%30.14 "Hg10 mi
3:57 am54 °FClear.5 mph62%30.14 "Hg10 mi
2:57 am54 °FClear.5 mph62%30.15 "Hg10 mi
1:57 am54 °FClear.5 mph62%30.16 "Hg10 mi
12:57 am54 °FClear.6 mph59%30.18 "Hg10 mi
11:57 pm
Tue, Dec 10
54 °FClear.5 mph62%30.19 "Hg10 mi
10:57 pm56 °FClear.3 mph55%30.19 "Hg10 mi
9:57 pm57 °FClear.5 mph55%30.19 "Hg10 mi
8:57 pm60 °FClear.6 mph46%30.19 "Hg10 mi
Weather by CustomWeather, © 2019

See weather overview

Advertising